Temp
39 40 40 39 39 40 38 39 33 40 41 47 48 50 51 51 50 46 45 44 44 44 46 47 49 50 52 56 59 59 59 59 58 60 59 59 60 60 60 59 60 62 61 61
35 40 40 37 40 41 41 41 41 42 41 53 54 53 49 49 47 44 43 43 43 43 43 45 46 47 48 49 54 58 58 57 58 58 58 57 58 60 59 59 60 60 59 60
30 36 37 32 37 41 43 45 44 39 46 51 48 42 44 43 43 41 41 40 40 41 41 42 45 46 46 46 48 47 48 49 50 52 52 54 57 57 57 59 59 59 59 60
30 33 22 39 46 46 43 45 47 47 47 45 41 39 39 40 40 39 39 38 37 38 39 41 45 46 45 44 45 43 43 43 45 47 47 48 48 48 48 52 56 56 56 57
28 28 34 39 41 40 39 40 45 43 45 43 43 42 35 35 35 36 37 37 36 37 38 40 42 45 45 44 42 39 39 40 41 43 43 43 43 43 44 47 46 41 41 43
30 24 21 35 41 46 45 35 42 42 44 43 44 34 33 34 34 34 37 38 37 37 37 37 39 43 42 41 40 37 39 39 39 41 40 40 41 41 43 43 40 39 37 36
29 28 33 38 42 45 33 32 39 40 40 40 35 34 32 33 32 33 35 37 39 38 35 35 37 39 37 39 37 38 39 38 38 39 38 38 39 40 41 39 37 35 33 32
30 27 24 41 43 35 36 37 37 37 36 34 33 33 32 31 31 31 32 36 37 36 34 35 36 37 35 35 38 38 38 37 35 36 36 37 37 37 38 38 35 33 32 31
33 31 37 39 36 37 38 34 34 35 36 35 32 30 30 30 31 31 32 33 35 34 34 34 34 34 32 34 37 37 36 34 34 33 34 34 33 33 34 34 33 32 32 31
33 33 32 35 35 36 34 32 32 33 33 33 31 30 28 28 29 29 30 30 32 32 31 30 32 32 32 34 37 35 34 33 33 32 32 34 34 33 32 32 31 32 31 30
31 32 34 33 34 33 32 33 31 30 29 30 30 28 28 27 27 28 29 30 30 29 28 28 30 30 31 34 36 34 33 33 32 32 31 30 30 30 31 30 32 30 30 30
26 30 31 30 32 32 30 28 28 30 28 29 30 28 28 26 27 26 26 27 27 28 28 28 28 28 30 32 34 34 33 32 31 31 30 30 29 27 29 30 30 31 31 30
29 33 31 30 31 32 29 29 30 28 28 27 27 27 26 25 25 25 26 25 25 25 26 27 27 27 28 30 30 29 29 30 31 30 29 28 27 26 23 24 26 27 28 29
30 32 29 28 26 30 32 30 30 28 27 26 26 26 25 24 23 23 22 24 24 24 24 24 24 23 25 27 27 25 25 24 26 25 25 24 24 23 24 23 21 21 22 25
29 31 29 28 29 28 30 30 28 26 26 24 24 23 23 21 19 19 21 23 23 22 21 22 21 21 24 25 24 24 27 25 25 24 24 23 23 23 22 21 20 20 21 21
30 30 29 27 25 26 26 26 25 23 24 23 22 21 21 20 19 19 19 19 18 16 18 16 18 20 23 24 25 25 24 22 23 24 23 22 22 21 19 18 17 17 16 16
28 24 26 25 24 23 22 23 22 21 21 20 19 20 20 19 18 16 16 17 16 15 16 17 16 18 20 20 22 23 23 22 21 23 21 21 20 19 18 17 15 14 13 13
26 26 26 25 24 22 21 21 20 19 17 16 14 13 11 11 12 11 12 14 14 13 13 14 17 16 17 19 20 22 22 22 21 20 20 19 18 18 16 15 14 14 13 12
25 24 25 23 22 21 19 18 17 16 14 12 10 8 8 8 10 10 11 10 10 11 11 13 17 16 16 18 20 21 20 19 19 18 18 16 16 16 14 14 12 12 12 11
21 21 21 19 21 20 17 16 15 12 12 10 7 7 7 5 6 8 9 8 9 11 13 13 14 15 15 15 16 18 18 17 17 16 15 15 14 13 12 10 11 10 10 10
15 15 14 13 10 9 7 8 8 7 4 5 6 4 4 5 5 6 10 11 11 12 13 13 13 15 16 16 17 16 15 14 13 13 13 12 12 11 10 10 9 9 8 8
12 10 8 9 9 8 7 9 8 6 7 5 1 2 6 8 7 9 7 10 14 10 14 14 14 9 12 13 14 13 13 12 12 12 11 11 10 9 9 8 7 7 7 6
11 11 10 9 10 10 9 9 6 8 7 5 6 8 10 11 12 11 10 12 14 12 14 12 9 8 8 11 11 10 10 9 9 8 8 8 8 8 8 7 7 6 6 6
11 12 10 10 10 13 12 11 12 11 8 9 8 6 12 12 11 14 14 9 8 9 10 10 8 6 7 9 9 8 8 8 7 7 7 3 6 6 6 6 5 6 5 4
13 11 11 11 13 15 13 13 13 13 14 14 13 14 13 15 13 13 12 11 9 9 10 4 4 4 8 8 7 7 7 7 7 7 6 6 5 5 5 5 3 4 3 3
15 17 17 15 17 18 17 16 16 16 14 12 12 10 11 12 12 12 11 7 9 6 10 9 7 7 7 7 7 6 7 7 7 6 4 5 4 5 4 3 3 3 3 3
18 16 18 18 19 18 17 17 17 16 14 12 12 10 11 10 9 9 3 9 8 7 7 7 8 6 7 6 6 6 6 6 1 6 4 4 4 5 3 3 3 2 1 -0
MSLP
1008.26 1008.38 1008.48 1008.50 1008.54 1008.56 1008.56 1008.32 1007.94 1006.33 1005.91 1004.99 1005.29 1005.32 1005.29 1005.60 1005.71 1006.15 1007.05 1007.03 1006.18 1005.68 1005.37 1005.18 1004.10 1003.90 1003.76 1003.55 1003.95 1004.66 1005.27 1005.71 1005.97 1006.61 1006.96 1007.51 1008.00 1008.39 1008.84 1009.19 1009.35 1009.60 1009.93 1010.33
1008.82 1008.67 1008.62 1008.38 1008.28 1008.20 1007.90 1007.50 1007.09 1006.58 1005.77 1005.37 1005.50 1005.86 1006.17 1006.51 1006.93 1007.26 1007.17 1007.45 1007.49 1007.61 1007.12 1006.63 1006.22 1005.66 1005.05 1004.95 1004.81 1005.20 1005.60 1005.88 1006.37 1006.77 1007.08 1007.46 1007.74 1008.06 1008.56 1008.84 1009.00 1009.32 1009.50 1009.69
1009.27 1009.18 1008.83 1008.49 1008.10 1008.05 1007.73 1007.27 1007.02 1006.49 1006.07 1006.11 1006.45 1007.17 1007.78 1008.24 1008.75 1009.31 1009.93 1009.51 1009.68 1009.37 1008.71 1008.67 1007.81 1007.25 1006.80 1006.54 1006.79 1006.92 1007.41 1007.67 1007.63 1007.57 1007.72 1007.71 1007.72 1007.91 1008.20 1008.38 1008.71 1008.98 1009.24 1009.47
1009.77 1009.49 1009.27 1008.79 1008.28 1008.10 1007.88 1007.63 1007.46 1007.00 1007.16 1007.69 1008.66 1009.64 1010.14 1010.56 1010.76 1011.09 1010.93 1011.03 1010.89 1010.87 1009.99 1009.57 1009.24 1008.89 1008.08 1007.96 1009.02 1008.65 1009.04 1009.17 1009.18 1009.34 1008.99 1008.92 1008.80 1008.83 1008.82 1008.88 1008.72 1008.69 1008.93 1009.10
1010.50 1010.29 1009.77 1008.98 1009.15 1009.24 1008.91 1008.65 1008.65 1008.29 1008.34 1009.12 1009.65 1010.35 1011.96 1012.87 1012.88 1012.77 1012.65 1012.50 1012.22 1011.83 1011.67 1011.13 1009.86 1008.93 1009.01 1009.26 1010.26 1009.50 1010.16 1011.82 1011.11 1010.36 1010.14 1010.24 1010.19 1009.99 1009.83 1009.65 1009.75 1010.16 1010.70 1010.38
1011.32 1011.08 1010.50 1010.41 1010.09 1009.77 1009.63 1009.81 1010.18 1009.84 1009.26 1009.96 1010.01 1011.75 1013.74 1014.36 1014.40 1014.44 1013.91 1013.69 1013.45 1013.12 1012.55 1011.99 1011.79 1011.33 1011.54 1012.01 1011.37 1011.23 1012.53 1012.83 1012.26 1011.60 1011.51 1011.53 1011.51 1011.21 1011.04 1010.85 1011.09 1011.51 1012.04 1012.39
1012.06 1011.99 1011.32 1011.48 1010.79 1010.18 1010.88 1012.66 1012.12 1011.94 1011.66 1011.52 1012.26 1014.00 1015.13 1015.24 1015.44 1015.56 1015.26 1014.90 1014.55 1014.16 1013.79 1013.76 1013.37 1012.83 1012.82 1012.51 1012.62 1013.16 1013.91 1014.15 1013.60 1012.98 1012.62 1012.64 1012.54 1012.22 1012.13 1012.08 1012.21 1012.56 1013.05 1013.61
1012.82 1012.79 1012.72 1012.48 1011.73 1012.46 1013.73 1014.02 1013.98 1013.85 1014.02 1014.21 1015.02 1015.50 1016.07 1016.15 1016.38 1016.48 1016.38 1015.96 1015.72 1015.39 1015.37 1015.34 1014.93 1014.54 1014.52 1014.15 1014.38 1014.34 1014.66 1014.23 1013.96 1013.70 1013.64 1013.67 1013.64 1013.27 1013.08 1013.11 1013.30 1013.60 1013.76 1014.14
1014.15 1014.36 1014.11 1014.00 1014.52 1015.18 1015.14 1015.56 1015.87 1015.71 1015.79 1015.98 1016.31 1016.95 1017.24 1017.13 1017.56 1017.91 1017.72 1017.33 1016.97 1016.71 1016.61 1016.63 1016.46 1016.19 1015.97 1015.81 1015.30 1015.04 1014.91 1014.81 1014.90 1014.76 1014.54 1014.70 1014.57 1014.38 1014.26 1014.23 1014.42 1014.65 1014.56 1014.90
1015.05 1015.72 1015.93 1015.92 1016.33 1016.68 1017.15 1017.42 1017.68 1017.68 1017.61 1017.54 1017.73 1018.14 1018.29 1018.51 1018.52 1018.78 1018.79 1018.34 1018.27 1017.97 1017.75 1017.79 1017.72 1017.50 1017.13 1016.61 1016.09 1015.88 1015.94 1015.94 1015.89 1015.86 1015.77 1015.90 1015.59 1015.62 1015.34 1015.41 1015.32 1015.25 1015.73 1016.21
1016.18 1016.59 1017.00 1017.52 1017.86 1018.21 1018.57 1018.80 1018.96 1019.26 1019.28 1019.21 1019.29 1019.40 1019.55 1019.83 1019.95 1019.96 1019.94 1019.55 1019.26 1019.02 1019.07 1019.01 1018.75 1018.53 1018.19 1017.51 1016.92 1016.75 1016.75 1016.69 1016.68 1017.03 1017.10 1017.10 1017.18 1016.93 1016.77 1016.93 1016.86 1017.02 1017.40 1017.32
1017.83 1018.23 1018.28 1019.04 1019.26 1019.47 1019.66 1019.98 1020.10 1020.16 1020.39 1020.61 1020.54 1020.63 1020.74 1020.83 1021.05 1021.22 1021.11 1020.76 1020.30 1020.14 1020.03 1019.90 1019.62 1019.22 1018.88 1018.39 1017.74 1017.21 1017.00 1017.08 1017.26 1017.71 1017.87 1018.00 1018.30 1018.67 1018.94 1018.88 1018.81 1018.66 1018.46 1018.07
1019.26 1019.27 1019.58 1020.14 1020.31 1020.53 1020.79 1020.98 1021.10 1021.08 1021.33 1021.52 1021.83 1021.87 1021.77 1021.77 1021.97 1022.00 1021.90 1021.82 1021.61 1021.49 1021.28 1020.99 1020.67 1020.25 1019.88 1019.24 1018.72 1018.48 1018.27 1018.25 1018.28 1018.45 1018.54 1018.78 1019.14 1019.68 1020.18 1020.63 1020.09 1019.65 1019.73 1019.84
1020.16 1020.07 1020.38 1020.97 1021.42 1021.50 1021.44 1021.81 1022.01 1022.16 1022.33 1022.59 1022.77 1022.88 1022.90 1022.85 1022.99 1022.92 1022.84 1022.79 1022.68 1022.49 1022.09 1021.92 1021.71 1021.46 1021.09 1020.49 1019.93 1019.65 1019.52 1019.49 1019.42 1019.53 1019.69 1020.12 1020.47 1020.75 1020.84 1020.98 1021.22 1021.38 1021.74 1021.41
1020.96 1020.95 1021.33 1021.94 1022.18 1022.24 1022.29 1022.34 1022.43 1022.59 1023.00 1023.28 1023.44 1023.59 1023.85 1023.98 1024.07 1024.32 1024.27 1023.96 1023.77 1023.59 1023.37 1023.04 1022.66 1022.55 1022.20 1021.66 1021.22 1020.89 1020.52 1020.65 1020.75 1021.01 1021.36 1021.52 1021.48 1021.68 1021.91 1022.18 1022.39 1022.54 1022.60 1022.63
1021.69 1021.74 1021.97 1022.37 1022.86 1023.05 1023.18 1023.16 1023.37 1023.67 1023.99 1024.24 1024.45 1024.71 1024.96 1025.20 1025.28 1025.45 1025.33 1025.11 1024.68 1024.75 1024.77 1024.59 1024.29 1024.15 1023.49 1022.75 1022.19 1022.00 1022.02 1022.14 1021.98 1022.04 1022.23 1022.35 1022.52 1022.72 1022.90 1023.02 1023.26 1023.63 1023.85 1024.07
1021.97 1022.38 1022.62 1023.01 1023.49 1023.81 1024.03 1024.35 1024.64 1024.94 1025.22 1025.45 1025.79 1025.92 1026.06 1026.23 1026.39 1026.46 1026.50 1026.37 1026.25 1026.05 1025.85 1025.42 1025.19 1024.80 1024.13 1023.59 1023.12 1022.86 1022.72 1022.70 1022.71 1022.65 1022.89 1023.15 1023.33 1023.50 1023.79 1024.18 1024.51 1025.01 1025.52 1025.77
1023.34 1023.54 1023.73 1024.01 1024.26 1024.77 1025.19 1025.59 1025.99 1026.38 1026.63 1026.87 1027.14 1027.50 1027.66 1027.57 1027.50 1027.60 1027.59 1027.39 1027.05 1026.76 1026.60 1026.36 1025.78 1025.32 1024.74 1024.27 1023.91 1023.65 1023.48 1023.39 1023.48 1023.69 1023.98 1024.33 1024.64 1024.92 1025.21 1025.52 1025.86 1026.21 1026.59 1026.93
1024.43 1024.57 1024.80 1025.17 1025.42 1025.81 1026.39 1026.89 1027.42 1027.72 1027.84 1028.09 1028.28 1028.71 1028.87 1028.81 1028.56 1028.47 1028.28 1028.01 1027.69 1027.39 1027.44 1027.04 1026.47 1026.09 1025.71 1025.26 1024.80 1024.61 1024.56 1024.55 1024.73 1024.91 1025.18 1025.57 1025.76 1026.01 1026.25 1026.55 1026.86 1027.23 1027.47 1027.64
1025.53 1025.79 1026.11 1026.43 1026.66 1027.14 1027.75 1028.17 1028.39 1028.68 1029.00 1029.19 1029.50 1029.63 1029.67 1029.58 1029.37 1029.10 1029.00 1028.94 1028.98 1028.74 1028.27 1027.74 1027.27 1026.93 1026.57 1026.28 1025.94 1025.77 1025.70 1025.63 1025.67 1025.99 1026.13 1026.41 1026.72 1026.95 1027.32 1027.54 1027.71 1028.07 1028.28 1028.61
1026.63 1027.03 1027.45 1027.90 1028.44 1028.98 1029.19 1029.32 1029.50 1029.80 1030.22 1030.27 1030.36 1030.53 1030.42 1030.26 1029.93 1029.77 1029.44 1029.24 1029.42 1029.14 1028.80 1028.47 1028.18 1027.75 1027.41 1027.11 1026.88 1026.81 1026.73 1026.76 1026.87 1027.05 1027.26 1027.50 1027.69 1027.84 1028.16 1028.46 1028.79 1028.90 1029.11 1029.33
1027.71 1028.04 1028.40 1028.68 1028.97 1029.39 1029.72 1029.82 1030.01 1030.27 1030.48 1030.66 1030.80 1030.79 1030.64 1030.51 1030.44 1030.32 1030.33 1029.98 1029.79 1029.66 1029.34 1029.14 1028.99 1028.93 1028.51 1028.10 1027.92 1027.84 1027.80 1027.84 1028.00 1028.13 1028.26 1028.46 1028.53 1028.76 1029.03 1029.25 1029.61 1029.75 1030.00 1030.11
1028.23 1028.57 1028.86 1029.12 1029.34 1029.67 1029.89 1029.99 1030.13 1030.23 1030.39 1030.56 1030.66 1030.66 1030.52 1030.44 1030.33 1030.11 1030.08 1030.30 1030.13 1030.09 1029.92 1029.98 1029.96 1029.73 1029.40 1028.98 1028.91 1028.87 1028.89 1028.97 1029.12 1029.27 1029.36 1029.44 1029.48 1029.64 1029.77 1029.95 1030.24 1030.44 1030.56 1030.60
1028.78 1029.13 1029.45 1029.74 1029.88 1029.86 1030.03 1030.22 1030.30 1030.45 1030.52 1030.63 1030.69 1030.91 1030.66 1030.49 1030.54 1030.53 1030.59 1030.68 1030.65 1030.54 1030.55 1030.59 1030.57 1030.51 1030.25 1030.01 1029.97 1029.98 1030.01 1030.08 1030.16 1030.21 1030.25 1030.34 1030.34 1030.46 1030.53 1030.68 1030.83 1030.99 1031.03 1030.97
1028.94 1029.27 1029.54 1029.71 1029.67 1029.69 1029.90 1030.14 1030.31 1030.46 1030.55 1030.66 1030.71 1030.78 1030.79 1030.79 1030.75 1031.00 1031.06 1031.11 1031.10 1031.05 1031.12 1031.48 1031.38 1031.28 1030.88 1030.84 1030.82 1030.75 1030.73 1030.80 1031.03 1030.93 1030.88 1030.85 1030.89 1030.93 1030.99 1031.04 1031.17 1031.37 1031.25 1031.20
1028.75 1028.88 1029.03 1029.27 1029.29 1029.31 1029.49 1029.77 1029.81 1030.04 1030.35 1030.62 1030.88 1031.15 1031.20 1031.22 1031.23 1031.29 1031.41 1031.44 1031.48 1031.46 1031.45 1031.46 1031.47 1031.36 1031.28 1031.30 1031.29 1031.20 1031.11 1031.10 1031.21 1031.27 1031.29 1031.12 1031.12 1031.11 1031.18 1031.24 1031.28 1031.27 1031.24 1031.18
1028.49 1028.70 1028.87 1029.04 1029.22 1029.33 1029.43 1029.50 1029.49 1029.67 1030.16 1030.51 1030.73 1031.16 1031.26 1031.41 1031.47 1031.46 1031.53 1031.61 1031.64 1031.66 1031.63 1031.62 1031.61 1031.66 1031.50 1031.45 1031.37 1031.37 1031.40 1031.28 1031.60 1031.18 1031.26 1031.24 1031.29 1031.16 1031.27 1031.27 1031.29 1031.32 1031.34 1031.31
Wind_Speed
5 3 3 3 3 5 7 10 8 10 14 19 10 15 6 5 10 16 12 13 16 16 16 14 15 15 12 7 8 9 9 9 8 8 7 8 9 10 10 11 11 12 12 12
1 3 4 4 7 10 9 11 14 17 19 14 8 11 1 8 9 15 13 17 17 16 17 16 15 13 14 15 11 5 5 4 3 6 6 7 7 9 8 10 11 11 12 13
3 3 4 5 4 7 7 6 5 10 13 12 11 13 12 13 12 12 10 12 15 15 16 15 14 15 16 16 15 16 13 13 11 11 9 7 4 7 8 10 9 11 11 11
1 2 2 2 8 2 8 8 11 12 9 11 12 14 16 17 13 12 12 13 12 12 14 16 15 14 15 16 14 14 15 14 13 11 10 10 10 9 9 7 5 8 9 10
1 1 5 1 6 6 6 8 13 10 9 10 6 6 11 14 13 13 13 12 11 13 13 14 17 18 18 19 11 16 16 13 11 12 12 11 10 9 8 6 8 10 11 12
2 2 2 4 10 11 6 3 17 17 6 9 9 3 4 10 10 13 14 11 13 13 14 16 16 15 15 14 15 17 13 12 12 12 12 11 10 9 8 9 10 9 12 13
2 2 4 8 15 9 2 5 12 14 11 9 6 7 5 6 10 10 11 14 12 14 15 16 15 14 15 14 15 12 10 9 11 12 12 11 10 10 10 10 10 10 11 10
1 2 3 12 5 6 2 7 9 11 12 15 11 11 11 12 12 13 14 15 14 12 14 14 15 12 12 13 10 10 9 12 13 13 11 10 12 11 11 10 11 10 9 9
4 4 7 12 12 11 10 8 9 9 9 10 11 9 8 10 12 13 13 12 12 11 12 13 14 13 11 11 8 9 11 13 13 13 12 13 13 12 9 11 9 9 9 9
2 7 11 11 11 11 11 12 12 12 11 10 11 9 9 10 10 10 11 12 11 12 13 14 13 13 12 10 8 8 9 10 11 13 13 13 10 10 9 8 8 9 9 9
2 5 2 12 11 10 12 10 11 12 12 11 9 10 9 9 9 10 10 10 11 12 11 12 12 12 12 12 8 7 8 8 9 9 11 13 15 11 11 14 12 9 8 8
4 6 6 7 9 10 11 10 11 10 11 12 10 9 9 9 9 9 9 10 11 12 12 12 12 13 13 12 10 8 8 8 7 7 7 8 9 12 25 22 24 22 20 12
3 3 9 9 10 9 9 9 10 11 11 10 10 9 10 10 10 10 10 11 11 11 11 11 12 13 13 13 11 10 8 7 6 7 7 7 7 7 7 12 23 25 22 19
7 1 7 12 6 8 8 8 10 11 11 10 9 9 9 9 9 11 11 11 11 11 12 12 12 13 13 11 11 10 9 12 7 7 7 7 7 7 6 7 7 8 16 16
7 8 9 7 7 9 8 6 8 9 9 10 10 10 10 10 11 10 9 9 10 11 12 12 13 13 12 10 10 10 8 7 7 7 7 7 7 7 7 7 7 7 6 9
3 7 7 9 8 8 8 8 8 8 8 8 9 9 9 9 9 9 10 11 11 11 11 10 11 11 10 9 8 7 8 10 8 6 6 7 6 7 7 8 8 8 8 8
5 4 4 6 7 8 9 8 7 6 7 8 7 6 7 7 8 9 9 9 9 10 10 11 11 10 10 9 8 6 6 7 9 7 7 7 7 7 7 7 8 8 8 9
7 7 7 6 6 6 8 8 7 7 7 7 8 8 7 8 8 7 7 7 7 9 12 11 10 10 10 10 8 6 6 6 7 7 6 7 7 6 6 7 7 6 6 8
8 8 8 8 8 9 8 8 7 7 7 7 8 8 6 6 6 6 6 8 9 10 11 10 12 11 10 11 8 6 6 6 6 6 6 7 6 6 6 6 7 6 6 6
9 8 9 10 9 8 8 7 7 7 6 6 5 6 6 5 4 5 6 10 8 5 7 10 9 9 9 9 9 6 6 6 7 6 6 6 6 6 7 8 7 6 6 6
8 9 9 9 8 6 5 4 5 6 5 4 6 5 5 5 6 3 5 6 8 7 7 8 8 6 6 6 6 6 6 6 7 6 6 5 6 6 6 6 5 5 5 5
5 6 6 5 6 6 4 4 5 4 4 4 4 3 3 4 3 5 4 5 4 7 6 6 6 9 7 8 6 6 7 7 6 5 5 5 5 5 5 5 5 5 4 4
5 4 4 4 5 5 3 4 4 4 4 4 4 4 5 4 4 4 4 6 5 6 6 6 8 9 9 7 6 7 7 7 6 6 5 4 4 4 4 4 4 4 3 3
4 4 4 4 4 3 4 2 3 3 2 1 1 1 2 2 3 4 3 3 5 6 6 6 7 8 7 5 5 5 5 5 5 4 4 4 3 3 3 3 3 2 2 2
4 4 4 4 3 2 3 4 3 3 3 3 4 3 3 2 1 2 3 3 4 4 4 6 6 6 5 4 4 4 4 4 3 3 3 3 3 2 2 2 1 1 0 0
5 4 3 3 2 2 3 4 4 3 3 3 2 1 1 2 2 1 1 2 2 2 3 2 3 3 3 3 3 3 3 3 2 2 2 1 1 1 1 1 1 1 2 2
3 2 2 2 1 2 2 2 3 3 3 3 2 2 1 1 1 1 1 1 1 1 1 1 2 3 2 2 2 1 1 1 1 1 1 1 2 1 1 1 1 2 2 3
Wind_Direction
93 128 174 225 245 271 267 252 253 288 286 292 311 327 335 12 52 52 24 15 31 30 28 24 42 45 46 62 136 152 157 161 163 175 181 186 200 202 198 198 203 205 203 209
83 33 76 275 281 289 270 264 252 268 277 294 299 319 158 79 56 51 27 21 30 36 33 25 30 42 44 40 37 113 128 122 129 176 181 187 200 210 206 211 214 212 212 210
93 23 322 289 147 354 331 308 272 303 309 310 334 56 39 66 52 53 31 38 25 24 32 22 32 40 49 45 41 46 44 42 40 39 53 20 230 198 210 224 223 222 226 225
57 321 59 100 306 64 358 356 347 312 348 39 75 66 51 40 45 35 34 30 32 23 28 26 29 44 56 55 42 50 40 32 30 27 39 34 39 37 33 4 249 225 224 220
68 24 302 36 45 1 354 343 2 347 104 95 154 111 44 25 28 30 32 27 26 27 25 25 24 32 41 48 34 49 42 13 22 34 34 34 38 30 22 26 26 55 34 41
105 49 285 61 333 326 293 268 0 348 95 76 73 49 55 15 23 28 25 32 30 29 30 31 26 38 46 49 42 43 33 19 22 34 36 35 30 30 37 57 64 69 59 51
142 235 282 349 323 309 226 4 10 21 10 37 61 51 82 56 45 29 32 31 33 36 38 28 20 34 37 39 43 48 47 45 43 41 44 34 35 38 45 61 73 70 69 56
134 240 300 358 19 31 29 40 37 45 56 70 70 68 56 44 38 32 26 27 28 39 38 30 28 29 34 33 34 47 48 51 46 48 48 46 44 43 47 57 61 61 64 58
353 1 28 47 65 37 51 61 26 52 55 72 79 64 52 62 46 30 26 28 28 34 38 34 30 26 28 12 35 46 49 51 48 49 50 47 46 47 48 49 55 54 55 56
337 48 30 39 53 51 48 55 45 38 48 56 68 64 57 43 45 37 27 31 26 35 35 29 25 26 22 14 37 59 64 62 60 53 56 55 55 48 49 49 54 59 58 58
337 28 121 46 43 55 52 56 63 53 44 47 55 53 57 53 45 36 27 29 33 35 32 29 23 22 17 15 26 61 73 74 76 72 67 66 55 45 54 49 50 63 59 60
47 346 80 47 46 53 57 51 51 56 58 47 51 61 67 59 50 41 35 31 35 33 30 25 22 24 16 15 21 43 60 63 64 75 75 79 79 71 55 61 62 65 63 63
32 45 90 76 45 62 64 61 59 64 60 60 49 49 55 59 50 47 42 41 36 33 30 27 25 23 15 17 27 39 50 53 65 65 67 73 76 82 84 58 51 52 55 59
29 290 90 47 54 36 74 80 75 71 64 63 62 60 58 61 54 45 38 31 37 35 35 30 28 22 11 17 32 40 48 48 56 59 62 66 69 72 68 65 64 56 37 48
49 59 87 95 72 58 52 62 64 68 62 57 56 59 58 60 55 46 36 39 43 43 34 27 26 18 10 20 38 41 52 56 63 68 68 73 77 75 72 71 69 65 59 52
90 92 86 75 64 56 55 51 66 63 63 64 62 62 66 67 64 54 44 38 42 36 27 23 26 9 13 23 40 55 63 64 70 80 79 76 73 75 73 67 63 54 46 30
165 70 69 79 69 56 56 54 55 58 62 61 53 58 73 74 65 52 41 37 43 38 27 22 15 6 14 23 38 48 59 63 61 67 62 61 63 65 66 67 66 61 54 41
77 78 69 63 73 82 72 67 66 67 68 70 67 63 56 57 58 43 29 26 34 38 24 7 9 8 13 22 30 43 52 58 61 63 66 66 69 70 73 77 77 79 75 61
82 85 82 81 78 84 83 80 76 77 73 78 78 70 66 57 57 49 37 35 31 28 10 2 11 19 22 19 29 40 53 67 72 73 78 82 80 79 82 84 82 77 76 71
82 84 85 77 74 87 94 91 90 77 67 80 76 62 57 36 32 52 52 53 30 5 354 9 13 25 24 30 34 50 56 61 72 71 70 78 81 82 83 78 83 81 79 76
82 87 91 95 88 74 75 94 101 91 83 86 97 94 81 52 43 26 49 49 17 8 18 25 25 21 28 28 43 52 59 68 70 69 72 79 85 82 85 83 81 82 83 81
100 99 96 98 96 90 72 87 99 106 94 94 94 97 98 83 84 83 64 42 33 17 31 33 31 28 35 42 50 57 61 65 66 68 73 76 84 89 90 93 91 87 84 77
104 103 99 93 89 90 77 63 66 75 75 70 72 64 57 51 37 29 39 29 32 39 45 42 34 38 39 45 50 55 59 61 64 63 64 67 72 82 92 98 98 100 95 86
125 132 132 134 136 130 114 89 99 93 91 94 43 259 357 42 45 37 60 55 43 44 42 39 40 42 42 47 52 56 58 60 61 62 70 67 70 84 90 106 113 108 98 101
147 145 145 164 176 183 169 171 161 153 140 97 76 77 54 61 53 87 61 60 51 49 52 37 41 42 45 46 49 52 55 54 53 59 58 63 69 79 81 78 70 47 51 337
167 175 181 204 271 265 213 200 227 198 170 153 134 102 80 35 74 99 87 41 46 43 47 37 32 32 34 37 41 41 37 48 46 45 41 59 61 59 30 4 328 303 290 283
166 163 160 156 72 37 22 300 261 218 168 156 129 143 134 125 70 104 73 43 25 336 301 316 341 358 354 341 334 327 311 306 287 324 276 251 244 257 281 303 296 297 290 282